Location: Chilton Park
(37.7711°N, 100.0276°W)
Time: 08:54:34
(UTC+00:00)

Cosmos 2227 Rocket - Pass Details

Date: 06 July 2022
Orbit: 840 x 844 km, 71.0° (Epoch: 14 August)

Event Time Altitude Azimuth Distance (km) Brightness Sun altitude
Exits shadow 09:41:05 21° 255° (WSW) 1,791 3.4 -16.8°
Maximum altitude 09:43:49 32° 300° (WNW) 1,412 3.2 -16.4°
Drops below altitude 10° 09:48:52 10° 3° (N) 2,470 5.4 -15.7°
Sets 09:51:35 0° 14° (NNE) 3,408 6.4 -15.3°
